Location: Kaseke
(18.0171°S, 31.0526°E)
Time: 12:49:20
(UTC+00:00)

Cosmos 2219 - Pass Details

Date: 14 July 2020
Orbit: 835 x 858 km, 71.1° (Epoch: 07 August)

Event Time Altitude Azimuth Distance (km) Brightness Sun altitude
Exits shadow 02:24:43 35° 165° (SSE) 1,365 4.2 -28.5°
Maximum altitude 02:26:54 54° 108° (ESE) 1,036 3.8 -28.0°
Drops below altitude 10° 02:32:26 10° 31° (NNE) 2,469 6.2 -26.7°
Sets 02:34:55 0° 27° (NNE) 3,395 6.9 -26.2°
